星链-34119 (STARLINK-34119)

导读

STARLINK-34119是美国太空探索技术公司星链星座的卫星,于2025年5月10日发射。星链项目旨在构建全球卫星互联网星座,该卫星继承星链典型设计,依托低轨运行优势,为全球偏远区域、地面网络覆盖盲区提供高速宽带网络接入服务,是美国持续扩容低轨卫星互联网星座的新增节点,助推星链星座全球服务能力升级。

Basic Information
目录编号:
63895
目录名称:
STARLINK-34119
国际标识:
2025-095F
轨道中心:
EARTH
卫星名称:
星链-34119
卫星全名:
星链-34119 (STARLINK-34119)
卫星状态:
在轨 (已飞行482 天)
发射日期:
2025-05-10 UTC
国别 :
美国 (US)
星等 :
--
Orbit Information
数据来源 国际轨道数据 AOE轨道数据
星历时间 2026-09-04T09:19:54+0800
10小时前
查看轨道信息
2026-09-03T00:00:00+0800
1天前
查看轨道信息
半长轴 6861.156km 6861.179km
偏心率 0.0000957 0.000001
轨道倾角 43.002° 43.003°
近地点辐角 225.909° 333.543°
升交点赤经 249.153° 256.999°
平近点角 134.168° 300.047°
近地点 482.362km 483.035km
远地点 483.676km 483.049km
周期 94.266分钟 94.267分钟
每日圈数 15.275903 15.275824
Detailed Information
固有亮度:
5
最大亮度:
2.5
卫星平台:
Starlink V1.0
覆盖范围:
全球
运营商:
太空探索技术公司
运营商所在国:
美国
制造商(研发单位):
太空探索技术公司
制造商所在国:
美国
使用方式:
暂无
Satellite Introduction
Starlink 计划是 SpaceX 推出的全球卫星互联网项目,通过发射低轨道卫星,为全球尤其是偏远地区提供高速、低延迟的互联网服务。自 2019 年起,Starlink 已部署数千颗卫星,旨在缩小全球数字鸿沟,推动互联网普及。该项目还为军事、航空等行业提供通信支持,带来广泛经济效益。
2D Orbit Map
3D Orbit Map
Orbit Altitude Analysis Chart
Orbit Inclination Analysis Chart
Orbit Comprehensive Analysis Chart
View Comprehensive Chart
Conjunction Data List
Event ID Objects TCA Miss Dist (km) Collision Risk Probability Collision Risk Index (CRI) Action
CDM_260903-235805-808906-389521
2026-09-03T
23:58:39+0000
0.381 km
远距离
2.55462E-4 高风险 0.83
CDM_260903-090405-808906-389521
2026-09-03T
09:04:10+0000
0.781 km
远距离
3.989388E-5 中风险 0.67
CDM_260903-073005-808906-389521
2026-09-03T
07:30:00+0000
1.070 km
极远距离
1.378214E-5 中风险 0.58
CDM_260904-013205-808906-389521
2026-09-04T
01:32:48+0000
1.932 km
极远距离
2.107417E-6 低风险 0.41
CDM_260903-222405-808906-389521
2026-09-03T
22:24:29+0000
2.294 km
极远距离
1.422759E-6 低风险 0.38
CDM_260903-103805-808906-389521
2026-09-03T
10:38:19+0000
2.577 km
极远距离
1.153552E-6 低风险 0.36
CDM_260903-055505-808906-389521
2026-09-03T
05:55:51+0000
2.816 km
极远距离
1.01411E-6 低风险 0.35